Location: Berkeley
(37.8716°N, 122.2727°W)
Time: 14:56:13
(UTC-07:00)

Tiangong - Pass Details

Date: 01 October 2021
Orbit: 382 x 385 km, 41.5° (Epoch: 19 October)

Event Time Altitude Azimuth Distance (km) Brightness Sun altitude
Exits shadow 06:05:01 19° 298° (WNW) 982 2.6 -12.7°
Maximum altitude 06:06:53 40° 0° (N) 576 2.0 -12.3°
Drops below altitude 10° 06:09:53 10° 73° (ENE) 1,395 5.3 -11.7°
Sets 06:12:02 0° 81° (E) 2,247 7.1 -11.3°
